EW9479 Weather Reports


Display with metric or nautical units.
time (UTC)temp
F
wind
direction
speed
MPH
gust
MPH
rain 1hr
in
rain 24hr
in
rain mn
in
humidity
%
barometer
mb
20260905213044 99 91 1.0 7.0 0.00 0.00 0.00 50 1012.5
20260905211549 98 8 1.0 10.0 0.00 0.00 0.00 51 1012.5
20260905210053 99 67 4.0 9.0 0.00 0.00 0.00 48 1012.5
20260905204553 100 44 1.0 3.0 0.00 0.00 0.00 45 1012.6
20260905203047 101 352 1.0 4.0 0.00 0.00 0.00 42 1012.9
20260905201548 101 21 2.0 6.0 0.00 0.00 0.00 44 1013.2
20260905200046 101 66 1.0 5.0 0.00 0.00 0.00 44 1013.4
20260905194551 100 106 2.0 6.0 0.00 0.00 0.00 46 1013.6
20260905193044 100 70 2.0 5.0 0.00 0.00 0.00 46 1013.8
20260905191546 100 153 2.0 8.0 0.00 0.00 0.00 46 1013.9
20260905190052 99 84 4.0 9.0 0.00 0.00 0.00 48 1014.1
20260905184558 100 104 2.0 9.0 0.00 0.00 0.00 45 1014.4
20260905183047 99 342 0.0 6.0 0.00 0.00 0.00 47 1014.5
20260905181554 99 309 2.0 6.0 0.00 0.00 0.00 48 1014.5
20260905174546 98 39 3.0 8.0 0.00 0.00 0.00 49 1014.7
20260905173103 97 36 2.0 9.0 0.00 0.00 0.00 50 1014.8
20260905171555 96 119 1.0 5.0 0.00 0.00 0.00 52 1015.1
20260905164546 95 83 2.0 8.0 0.00 0.00 0.00 58 1015.6
20260905163054 95 77 2.0 5.0 0.00 0.00 0.00 57 1015.7
20260905161601 94 345 1.0 5.0 0.00 0.00 0.00 60 1015.8
20260905160049 94 57 2.0 4.0 0.00 0.00 0.00 59 1015.9
20260905154547 92 288 1.0 5.0 0.00 0.00 0.00 62 1015.9
20260905153045 92 212 0.0 6.0 0.00 0.00 0.00 61 1016.1
20260905151547 92 346 0.0 2.0 0.00 0.00 0.00 64 1016.1
20260905150048 91 162 1.0 4.0 0.00 0.00 0.00 66 1016.1
20260905144552 91 227 0.0 2.0 0.00 0.00 0.00 66 1016.0
20260905143047 90 162 1.0 2.0 0.00 0.00 0.00 69 1016.0
20260905141545 88 89 0.0 1.0 0.00 0.00 0.00 72 1016.0
20260905140053 87 0 0.0 2.0 0.00 0.00 0.00 74 1016.0
20260905134555 86 86 0.0 1.0 0.00 0.00 0.00 76 1015.9
20260905133045 84 0 0.0 1.0 0.00 0.00 0.00 79 1016.0
20260905131544 80 0 0.0 2.0 0.00 0.00 0.00 85 1016.1
20260905130052 76 0 0.0 1.0 0.00 0.00 0.00 91 1016.0
20260905124552 75 0 0.0 1.0 0.00 0.00 0.00 93 1016.1
20260905123057 74 0 0.0 0.0 0.00 0.00 0.00 93 1016.0
20260905121552 73 0 0.0 0.0 0.00 0.00 0.00 93 1015.9
20260905120057 73 0 0.0 0.0 0.00 0.00 0.00 92 1015.7
20260905114559 72 0 0.0 0.0 0.00 0.00 0.00 92 1015.6
20260905113047 72 0 0.0 0.0 0.00 0.00 0.00 92 1015.5
20260905111545 73 0 0.0 0.0 0.00 0.00 0.00 92 1015.5
20260905110051 73 0 0.0 0.0 0.00 0.00 0.00 92 1015.3
20260905104551 73 0 0.0 0.0 0.00 0.00 0.00 91 1015.1
20260905103057 73 0 0.0 0.0 0.00 0.00 0.00 91 1015.1
20260905101559 73 0 0.0 0.0 0.00 0.00 0.00 91 1015.1
20260905100114 73 0 0.0 0.0 0.00 0.00 0.00 91 1015.1
20260905094549 73 0 0.0 1.0 0.00 0.00 0.00 91 1015.1
20260905093045 73 0 0.0 0.0 0.00 0.00 0.00 90 1014.9
20260905091557 74 0 0.0 0.0 0.00 0.00 0.00 90 1014.8
20260905090045 74 0 0.0 0.0 0.00 0.00 0.00 90 1014.9
20260905084550 74 0 0.0 0.0 0.00 0.00 0.00 90 1014.8
20260905083104 74 0 0.0 0.0 0.00 0.00 0.00 89 1015.0
20260905081550 74 0 0.0 0.0 0.00 0.00 0.00 89 1015.1
20260905080045 75 0 0.0 0.0 0.00 0.00 0.00 89 1014.9
20260905074548 75 240 0.0 1.0 0.00 0.00 0.00 89 1014.9
20260905073056 75 0 0.0 0.0 0.00 0.00 0.00 89 1014.9
20260905071551 75 0 0.0 0.0 0.00 0.00 0.00 88 1014.9
20260905070051 75 0 0.0 0.0 0.00 0.00 0.00 88 1015.1
20260905064602 75 0 0.0 0.0 0.00 0.00 0.00 88 1015.0
20260905063054 75 0 0.0 0.0 0.00 0.00 0.00 88 1015.2
20260905061550 75 0 0.0 0.0 0.00 0.00 0.00 87 1015.2
20260905060047 76 0 0.0 0.0 0.00 0.00 0.00 87 1015.3
20260905054703 76 0 0.0 0.0 0.00 0.00 0.00 86 1015.3
20260905053047 76 0 0.0 0.0 0.00 0.00 0.00 87 1015.3
20260905051543 77 0 0.0 0.0 0.00 0.00 0.00 85 1015.3
20260905050048 77 0 0.0 0.0 0.00 0.00 0.00 85 1015.3
20260905044551 78 0 0.0 0.0 0.00 0.00 0.00 84 1015.2
20260905043044 78 0 0.0 0.0 0.00 0.00 0.00 84 1015.4
20260905041551 78 0 0.0 0.0 0.00 0.00 0.00 83 1015.2
20260905040059 79 0 0.0 0.0 0.00 0.00 0.00 81 1015.1
20260905034554 79 0 0.0 0.0 0.00 0.00 0.00 81 1015.3
20260905033044 80 0 0.0 0.0 0.00 0.00 0.00 80 1015.3
20260905031555 80 0 0.0 0.0 0.00 0.00 0.00 79 1015.3
20260905030047 81 0 0.0 0.0 0.00 0.00 0.00 78 1015.4
20260905024556 82 0 0.0 0.0 0.00 0.00 0.00 76 1015.3
20260905023051 83 0 0.0 0.0 0.00 0.00 0.00 75 1015.3
20260905021545 84 0 0.0 0.0 0.00 0.00 0.00 73 1015.3
20260905020056 85 0 0.0 0.0 0.00 0.00 0.00 71 1015.3
20260905014545 86 0 0.0 1.0 0.00 0.00 0.00 69 1015.3
20260905013045 87 0 0.0 3.0 0.00 0.00 0.00 67 1015.3
20260905011546 86 4 0.0 0.0 0.00 0.00 0.00 69 1015.1
20260905010044 88 0 0.0 0.0 0.00 0.00 0.00 68 1015.2
20260905004548 89 0 0.0 1.0 0.00 0.00 0.00 65 1015.0
20260905003046 90 0 0.0 1.0 0.00 0.00 0.00 64 1014.7
20260905001551 91 0 0.0 1.0 0.00 0.00 0.00 62 1014.6
20260905000048 93 0 0.0 1.0 0.00 0.00 0.00 59 1014.3
20260904234547 94 98 0.0 2.0 0.00 0.00 0.00 57 1014.4
20260904233044 95 65 0.0 3.0 0.00 0.00 0.00 55 1014.2
20260904231600 95 105 0.0 1.0 0.00 0.00 0.00 55 1014.1
20260904230051 95 0 0.0 1.0 0.00 0.00 0.00 54 1014.0
20260904224545 97 0 0.0 1.0 0.00 0.00 0.00 49 1014.0
20260904223046 98 0 0.0 1.0 0.00 0.00 0.00 49 1014.0
20260904221548 97 0 0.0 1.0 0.00 0.00 0.00 51 1014.2
20260904220056 98 14 0.0 5.0 0.00 0.00 0.00 50 1014.1
20260904214548 97 0 0.0 3.0 0.00 0.00 0.00 50 1014.2